Hoquiam, WA
on Sunday, December 2, 2012

Sunday
Previous Day Next Day
Daily Summary
 ActualAverageRecord
Temperature
Mean Temperature °F 43°F  
Max Temperature 51°F 48°F 57°F (1958)
Min Temperature 46°F 38°F 25°F (1985)
Degree Days
Heating Degree Days 16 22  
Month to date heating degree days 44  
Cooling Degree Days 0 0  
Month to date cooling degree days 0  
Year to date cooling degree days 23  
Moisture
Dew Point 45°F   
Average Humidity 88    
Maximum Humidity 100    
Minimum Humidity 74    
Precipitation
Precipitation 0.70 in 0.35 in 2.63 in (2007)
Month to date precipitation 0.70  
Year to date precipitation 58.29  
Wind
Wind Speed 11 mph   
Max Wind Speed 24 mph   
Max Gust Speed 39 mph   
Visibility 9 miles   
Events Rain   

Key: T is trace of precipitation, MM is missing value
Source: NWS Daily Summary
Time(PST)TemperatureDew PointHumidity Pressure Visibility Wind DirectionWind SpeedGust SpeedPrecipitationEvents Conditions
12:36 AM 46.4°F 46.4°F 100% 29.21 in 5.0 miles Calm Calm - 0.11 in Rain Rain
12:53 AM 46.9°F 45.0°F 93% 29.22 in 5.0 miles Variable 4.6 mph - 0.17 in Rain Light Rain
1:17 AM 46.4°F 44.6°F 93% 29.20 in 5.0 miles ESE 8.1 mph - 0.06 in Rain Light Rain
1:53 AM 46.9°F 44.1°F 90% 29.21 in 10.0 miles Calm Calm - 0.08 in   Overcast
2:45 AM 46.4°F 46.4°F 100% 29.20 in 10.0 miles Calm Calm - 0.00 in   Overcast
2:53 AM 46.9°F 45.0°F 93% 29.22 in 8.0 miles West 6.9 mph - 0.01 in   Overcast
3:05 AM 46.4°F 44.6°F 93% 29.21 in 2.5 miles SSW 6.9 mph - 0.05 in Rain Rain
3:15 AM 46.4°F 44.6°F 93% 29.21 in 3.0 miles SW 8.1 mph - 0.08 in Rain Rain
3:28 AM 46.4°F 46.4°F 100% 29.21 in 10.0 miles SW 9.2 mph - 0.09 in Rain Light Rain
3:53 AM 48.0°F 44.1°F 86% 29.22 in 7.0 miles West 19.6 mph 26.5 mph 0.10 in Rain Light Rain
4:07 AM 48.2°F 44.6°F 87% 29.22 in 10.0 miles West 13.8 mph - 0.00 in Rain Light Rain
4:53 AM 48.0°F 44.1°F 86% 29.25 in 10.0 miles WSW 9.2 mph - 0.03 in Rain Light Rain
5:53 AM 48.0°F 43.0°F 83% 29.30 in 10.0 miles WSW 15.0 mph - N/A   Mostly Cloudy
6:53 AM 48.9°F 41.0°F 74% 29.34 in 10.0 miles SW 17.3 mph - N/A   Mostly Cloudy
7:53 AM 46.9°F 43.0°F 86% 29.37 in 10.0 miles SSE 10.4 mph - N/A   Overcast
8:53 AM 46.9°F 44.1°F 90% 29.41 in 7.0 miles SSW 18.4 mph - 0.08 in Rain Light Rain
9:53 AM 48.0°F 45.0°F 89% 29.44 in 10.0 miles South 16.1 mph - 0.00 in   Overcast
10:53 AM 51.1°F 46.0°F 83% 29.47 in 10.0 miles SSW 24.2 mph - N/A   Mostly Cloudy
11:20 AM 50.0°F 46.4°F 87% 29.47 in 10.0 miles South 18.4 mph - N/A   Overcast
11:30 AM 51.8°F 46.4°F 82% 29.47 in 10.0 miles South 18.4 mph - N/A   Mostly Cloudy
11:53 AM 51.1°F 46.0°F 83% 29.49 in 10.0 miles SSW 20.7 mph - 0.00 in   Mostly Cloudy
12:53 PM 51.1°F 46.9°F 86% 29.53 in 10.0 miles SSW 23.0 mph 27.6 mph 0.01 in Rain Light Rain
1:25 PM 51.8°F 46.4°F 82% 29.53 in 10.0 miles SSW 21.9 mph - N/A   Scattered Clouds
1:53 PM 51.1°F 46.9°F 86% 29.55 in 10.0 miles SSW 18.4 mph - N/A   Mostly Cloudy
2:53 PM 51.1°F 46.9°F 86% 29.58 in 10.0 miles SSW 19.6 mph - 0.05 in   Overcast
3:45 PM 50.0°F 46.4°F 87% 29.60 in 6.0 miles South 23.0 mph 28.8 mph 0.05 in Rain Light Rain
3:53 PM 50.0°F 46.9°F 89% 29.61 in 9.0 miles SSW 23.0 mph - 0.06 in Rain Light Rain
4:01 PM 51.8°F 46.4°F 82% 29.60 in 10.0 miles SSW 23.0 mph 29.9 mph 0.00 in   Overcast
4:53 PM 50.0°F 46.0°F 86% 29.65 in 10.0 miles SW 12.7 mph - 0.00 in Rain Light Rain
5:26 PM 46.4°F 44.6°F 93% 29.66 in 2.0 miles SW 16.1 mph 39.1 mph 0.08 in Rain Light Rain
5:34 PM 48.2°F 44.6°F 87% 29.66 in 10.0 miles SSW 13.8 mph - 0.08 in   Overcast
5:53 PM 50.0°F 46.0°F 86% 29.68 in 10.0 miles SSW 16.1 mph - 0.09 in   Mostly Cloudy
6:01 PM 50.0°F 46.4°F 87% 29.67 in 10.0 miles SSW 21.9 mph 28.8 mph N/A   Mostly Cloudy
6:53 PM 48.9°F 45.0°F 86% 29.70 in 10.0 miles South 15.0 mph - 0.00 in   Overcast
7:53 PM 50.0°F 46.0°F 86% 29.73 in 10.0 miles SSW 15.0 mph 25.3 mph N/A   Mostly Cloudy
8:53 PM 50.0°F 45.0°F 83% 29.76 in 10.0 miles SSW 17.3 mph - N/A   Mostly Cloudy
9:53 PM 48.9°F 44.1°F 83% 29.77 in 10.0 miles South 6.9 mph - 0.00 in   Partly Cloudy
10:53 PM 48.9°F 45.0°F 86% 29.79 in 10.0 miles SSE 8.1 mph - N/A   Mostly Cloudy
11:53 PM 48.0°F 45.0°F 89% 29.80 in 10.0 miles South 9.2 mph - 0.02 in Rain Light Rain
Moon Phase
Dec. 02 Dec. 06 Dec. 13 Dec. 20 Dec. 28
Sunrise:07:42 AM (PST) Moon Rise:08:28 PM (PST)12/2
Sunset:04:28 PM (PST) Moon Set:10:29 AM (PST)12/2

Copyright © 2014 The Weather Underground, Inc.